Hourly Weather Chalupki

Today, 19 June, Saturday

Time Temperature Precipitation Wind Pressure Humidity
00:00 +19°C° 0 mm 3 mps 753 mmHg 86%
01:00 +18°C° 0 mm 2 mps 753 mmHg 88%
02:00 +18°C° 0 mm 2 mps 753 mmHg 88%
03:00 +18°C° 0 mm 2 mps 753 mmHg 88%
04:00 +17°C° 0 mm 2 mps 753 mmHg 88%
05:00 +19°C° 0 mm 2 mps 753 mmHg 83%
06:00 +21°C° 0 mm 3 mps 753 mmHg 79%
07:00 +25°C° 0 mm 3 mps 753 mmHg 73%
08:00 +26°C° 0 mm 4 mps 753 mmHg 69%
09:00 +27°C° 0 mm 4 mps 752 mmHg 64%
10:00 +28°C° 0 mm 4 mps 752 mmHg 60%
11:00 +29°C° 0 mm 4 mps 752 mmHg 57%
12:00 +30°C° 0 mm 4 mps 752 mmHg 55%
13:00 +30°C° 0 mm 4 mps 752 mmHg 53%
14:00 +30°C° 0.1 mm 4 mps 751 mmHg 56%
15:00 +29°C° 0.1 mm 4 mps 751 mmHg 59%
16:00 +28°C° 0.1 mm 4 mps 751 mmHg 62%
17:00 +27°C° 0.3 mm 4 mps 751 mmHg 68%
18:00 +26°C° 0.3 mm 4 mps 751 mmHg 74%
19:00 +25°C° 0.3 mm 3 mps 751 mmHg 80%
20:00 +22°C° 0 mm 3 mps 751 mmHg 84%
21:00 +21°C° 0 mm 3 mps 751 mmHg 88%
22:00 +19°C° 0 mm 3 mps 751 mmHg 93%
23:00 +19°C° 0 mm 3 mps 751 mmHg 93%

Tomorrow, 20 June, Sunday

Time Temperature Precipitation Wind Pressure Humidity
00:00 +19°C° 0 mm 3 mps 751 mmHg 94%
01:00 +18°C° 0 mm 3 mps 751 mmHg 94%
02:00 +18°C° 0 mm 3 mps 751 mmHg 94%
03:00 +18°C° 0 mm 3 mps 750 mmHg 93%
04:00 +17°C° 0 mm 3 mps 750 mmHg 93%
05:00 +19°C° 0 mm 3 mps 750 mmHg 87%
06:00 +21°C° 0 mm 4 mps 750 mmHg 80%
07:00 +22°C° 0 mm 4 mps 750 mmHg 74%
08:00 +25°C° 0 mm 4 mps 750 mmHg 68%
09:00 +26°C° 0 mm 4 mps 750 mmHg 62%
10:00 +28°C° 0 mm 4 mps 750 mmHg 56%
11:00 +28°C° 0 mm 4 mps 750 mmHg 54%
12:00 +29°C° 0 mm 4 mps 749 mmHg 53%
13:00 +29°C° 0 mm 4 mps 749 mmHg 52%
14:00 +29°C° 0 mm 4 mps 749 mmHg 53%
15:00 +29°C° 0 mm 4 mps 748 mmHg 55%
16:00 +29°C° 0 mm 4 mps 748 mmHg 56%
17:00 +28°C° 0.1 mm 4 mps 748 mmHg 65%
18:00 +26°C° 0.1 mm 4 mps 748 mmHg 73%
19:00 +25°C° 0.1 mm 4 mps 748 mmHg 82%
20:00 +24°C° 0 mm 3 mps 748 mmHg 85%
21:00 +21°C° 0 mm 3 mps 748 mmHg 89%
22:00 +20°C° 0 mm 3 mps 747 mmHg 92%
23:00 +20°C° 0 mm 3 mps 747 mmHg 93%

Day after tomorrow, 21 June, Monday

Time Temperature Precipitation Wind Pressure Humidity
00:00 +19°C° 0 mm 2 mps 747 mmHg 93%
01:00 +19°C° 0 mm 2 mps 747 mmHg 93%
02:00 +19°C° 0 mm 2 mps 747 mmHg 94%
03:00 +18°C° 0 mm 2 mps 747 mmHg 95%
04:00 +18°C° 0 mm 2 mps 746 mmHg 95%
05:00 +20°C° 0 mm 3 mps 746 mmHg 90%
06:00 +21°C° 0 mm 4 mps 746 mmHg 84%
07:00 +23°C° 0 mm 4 mps 746 mmHg 78%
08:00 +25°C° 0 mm 5 mps 746 mmHg 72%
09:00 +27°C° 0 mm 5 mps 746 mmHg 66%
10:00 +28°C° 0 mm 5 mps 746 mmHg 60%
11:00 +29°C° 0 mm 5 mps 746 mmHg 57%
12:00 +30°C° 0 mm 4 mps 745 mmHg 55%
13:00 +30°C° 0 mm 4 mps 745 mmHg 52%
14:00 +30°C° 0 mm 4 mps 745 mmHg 53%
15:00 +30°C° 0 mm 4 mps 745 mmHg 54%
16:00 +30°C° 0 mm 5 mps 745 mmHg 56%
17:00 +29°C° 0 mm 4 mps 745 mmHg 62%
18:00 +28°C° 0 mm 4 mps 745 mmHg 69%
19:00 +26°C° 0 mm 4 mps 745 mmHg 75%
20:00 +25°C° 0 mm 4 mps 745 mmHg 80%
21:00 +24°C° 0 mm 3 mps 745 mmHg 84%
22:00 +22°C° 0 mm 3 mps 745 mmHg 89%
23:00 +21°C° 0 mm 3 mps 745 mmHg 90%

22 June, Tuesday

Time Temperature Precipitation Wind Pressure Humidity
00:00 +21°C° 0 mm 3 mps 745 mmHg 92%
01:00 +20°C° 0 mm 3 mps 745 mmHg 93%
02:00 +20°C° 0 mm 2 mps 745 mmHg 94%
03:00 +20°C° 0 mm 2 mps 745 mmHg 94%
04:00 +20°C° 0 mm 2 mps 745 mmHg 94%
05:00 +21°C° 0 mm 2 mps 745 mmHg 88%
06:00 +24°C° 0 mm 2 mps 746 mmHg 81%
07:00 +25°C° 0 mm 3 mps 746 mmHg 75%
08:00 +27°C° 0 mm 3 mps 746 mmHg 70%
09:00 +28°C° 0 mm 2 mps 746 mmHg 64%
10:00 +29°C° 0 mm 2 mps 746 mmHg 59%
11:00 +30°C° 0.4 mm 2 mps 746 mmHg 58%
12:00 +30°C° 0.4 mm 2 mps 746 mmHg 57%
13:00 +31°C° 0.4 mm 2 mps 746 mmHg 57%
14:00 +30°C° 0.5 mm 2 mps 747 mmHg 59%
15:00 +30°C° 0.5 mm 2 mps 747 mmHg 62%
16:00 +29°C° 0.5 mm 3 mps 747 mmHg 65%
17:00 +27°C° 1.2 mm 3 mps 747 mmHg 72%
18:00 +25°C° 1.2 mm 3 mps 747 mmHg 78%
19:00 +22°C° 1.2 mm 3 mps 747 mmHg 85%
20:00 +21°C° 0.1 mm 2 mps 747 mmHg 84%
21:00 +21°C° 0.1 mm 2 mps 747 mmHg 83%
22:00 +22°C° 0.1 mm 1 mps 747 mmHg 81%
23:00 +22°C° 0 mm 1 mps 747 mmHg 84%

23 June, Wednesday

Time Temperature Precipitation Wind Pressure Humidity
00:00 +22°C° 0 mm 1 mps 748 mmHg 86%
01:00 +20°C° 0 mm 2 mps 748 mmHg 89%
02:00 +20°C° 0 mm 2 mps 748 mmHg 90%
03:00 +20°C° 0 mm 2 mps 748 mmHg 91%
04:00 +20°C° 0 mm 2 mps 748 mmHg 92%
05:00 +23°C° 0 mm 2 mps 748 mmHg 87%
06:00 +24°C° 0 mm 2 mps 748 mmHg 82%
07:00 +26°C° 0 mm 2 mps 748 mmHg 77%
08:00 +27°C° 0.7 mm 2 mps 748 mmHg 72%
09:00 +29°C° 0.7 mm 3 mps 748 mmHg 68%
10:00 +30°C° 0.7 mm 3 mps 748 mmHg 63%
11:00 +31°C° 0.1 mm 2 mps 748 mmHg 59%
12:00 +31°C° 0.1 mm 2 mps 748 mmHg 55%
13:00 +32°C° 0.1 mm 2 mps 748 mmHg 51%
14:00 +32°C° 0.1 mm 2 mps 748 mmHg 54%
15:00 +31°C° 0.1 mm 2 mps 748 mmHg 57%
16:00 +31°C° 0.1 mm 2 mps 748 mmHg 60%
17:00 +29°C° 0.8 mm 2 mps 748 mmHg 67%
18:00 +27°C° 0.8 mm 2 mps 749 mmHg 74%
19:00 +26°C° 0.8 mm 2 mps 749 mmHg 81%
20:00 +25°C° 0.7 mm 3 mps 749 mmHg 86%
21:00 +24°C° 0.7 mm 3 mps 750 mmHg 90%
22:00 +21°C° 0.7 mm 4 mps 750 mmHg 95%
23:00 +21°C° 0 mm 4 mps 750 mmHg 96%

24 June, Thursday

Time Temperature Precipitation Wind Pressure Humidity
00:00 +20°C° 0 mm 4 mps 750 mmHg 96%
01:00 +19°C° 0 mm 4 mps 751 mmHg 97%
02:00 +19°C° 0 mm 3 mps 751 mmHg 97%
03:00 +19°C° 0 mm 3 mps 751 mmHg 97%
04:00 +18°C° 0 mm 2 mps 751 mmHg 97%
05:00 +19°C° 0 mm 2 mps 751 mmHg 94%
06:00 +19°C° 0 mm 2 mps 751 mmHg 91%
07:00 +20°C° 0 mm 2 mps 751 mmHg 88%
08:00 +21°C° 0 mm 2 mps 751 mmHg 85%
09:00 +23°C° 0 mm 1 mps 751 mmHg 81%
10:00 +23°C° 0 mm 1 mps 752 mmHg 77%
11:00 +25°C° 0 mm 1 mps 751 mmHg 72%
12:00 +27°C° 0 mm 1 mps 751 mmHg 66%
13:00 +28°C° 0 mm 1 mps 750 mmHg 60%
14:00 +29°C° 0 mm 1 mps 750 mmHg 59%
15:00 +30°C° 0 mm 2 mps 749 mmHg 57%
16:00 +30°C° 0 mm 2 mps 749 mmHg 56%
17:00 +29°C° 0 mm 2 mps 749 mmHg 63%
18:00 +28°C° 0 mm 3 mps 748 mmHg 69%
19:00 +27°C° 0 mm 3 mps 748 mmHg 76%
20:00 +25°C° 3 mm 4 mps 748 mmHg 82%
21:00 +23°C° 3 mm 4 mps 748 mmHg 88%
22:00 +21°C° 3 mm 5 mps 748 mmHg 94%
23:00 +21°C° 6.4 mm 5 mps 748 mmHg 93%
Show more

We Need Your Consent

Meteoprog and our Service Providers may store and access personal data such as cookies, device identifiers or other similar technologies on your device and process such data to personalise content and ads, as well as provide social media features and to analyse the traffic.

  • Store and/or access information on your device

    Cookies, device identifiers or other information can be stored or accessed on your device for the purposes indicated above.

  • Personalised ads and content, ad and content measurement, audience insights, and products development

    Ads and content can be personalised based on a profile. More data can be added to better personalise ads and content. Ad and content performance can be measured. Insights about the audience who saw the ads and content can be derived. Such data can be used to develop or improve user’s experience, systems and software.

By clicking ‘I Agree’ you will allow the use of indicated cookies, device identifiers, web beacons or other similar technologies. Your settings can be changed in the browser on your device.

For certain purposes, legitimate interests may be relied on, rather than consent. You can read more about this in our Privacy and Cookie Policy.